| time (UTC) | temp C | wind direction | speed KPH | gust KPH | rain 1hr cm | rain 24hr cm | rain mn cm | humidity % | barometer mb |
| 20260505070047 | 7 | 25 | 3.2 | 20.9 | 0.00 | 0.15 | 0.00 | 83 | 1008.5 |
| 20260505064552 | 7 | 25 | 8.0 | 20.9 | 0.00 | 0.23 | 0.00 | 83 | 1008.3 |
| 20260505063033 | 7 | 304 | 9.7 | 20.9 | 0.00 | 0.23 | 0.00 | 82 | 1008.0 |
| 20260505061538 | 8 | 298 | 6.4 | 22.5 | 0.00 | 0.23 | 0.00 | 82 | 1007.6 |
| 20260505060029 | 8 | 13 | 6.4 | 19.3 | 0.00 | 0.23 | 0.00 | 82 | 1007.3 |
| 20260505054525 | 8 | 350 | 9.7 | 22.5 | 0.00 | 0.28 | 0.00 | 81 | 1007.0 |
| 20260505053022 | 8 | 283 | 6.4 | 24.1 | 0.00 | 0.28 | 0.00 | 81 | 1006.8 |
| 20260505051518 | 8 | 273 | 4.8 | 22.5 | 0.00 | 0.28 | 0.00 | 80 | 1006.6 |
| 20260505041509 | 8 | 115 | 8.0 | 22.5 | 0.00 | 0.36 | 0.00 | 79 | 1005.6 |
| 20260505040008 | 9 | 294 | 6.4 | 20.9 | 0.00 | 0.36 | 0.00 | 78 | 1005.5 |
| 20260505034503 | 9 | 322 | 9.7 | 29.0 | 0.00 | 0.38 | 0.00 | 77 | 1005.2 |
| 20260505033100 | 9 | 283 | 6.4 | 20.9 | 0.00 | 0.38 | 0.00 | 76 | 1005.1 |
| 20260505031606 | 9 | 265 | 4.8 | 27.4 | 0.00 | 0.38 | 0.00 | 76 | 1004.7 |
| 20260505030053 | 10 | 264 | 6.4 | 33.8 | 0.00 | 0.38 | 0.00 | 75 | 1004.5 |
| 20260505024552 | 10 | 266 | 9.7 | 24.1 | 0.00 | 0.38 | 0.38 | 74 | 1004.3 |
| 20260505023057 | 10 | 271 | 9.7 | 24.1 | 0.00 | 0.38 | 0.38 | 73 | 1004.2 |
| 20260505021550 | 10 | 317 | 6.4 | 25.7 | 0.00 | 0.38 | 0.38 | 72 | 1004.1 |
| 20260505020048 | 10 | 315 | 8.0 | 30.6 | 0.00 | 0.38 | 0.38 | 71 | 1003.9 |
| 20260505014548 | 10 | 258 | 12.9 | 24.1 | 0.00 | 0.43 | 0.38 | 71 | 1003.7 |
| 20260505013047 | 10 | 239 | 9.7 | 20.9 | 0.00 | 0.43 | 0.38 | 72 | 1003.8 |
| 20260505011547 | 10 | 256 | 6.4 | 29.0 | 0.00 | 0.43 | 0.38 | 72 | 1003.9 |
| 20260505010047 | 10 | 329 | 9.7 | 24.1 | 0.00 | 0.43 | 0.38 | 70 | 1003.7 |
| 20260505004545 | 10 | 154 | 4.8 | 24.1 | 0.00 | 0.61 | 0.38 | 68 | 1003.7 |
| 20260505003043 | 10 | 159 | 6.4 | 32.2 | 0.00 | 0.61 | 0.38 | 66 | 1003.4 |
| 20260505001549 | 10 | 271 | 14.5 | 33.8 | 0.00 | 0.61 | 0.38 | 64 | 1003.0 |
| 20260505000047 | 10 | 251 | 9.7 | 27.4 | 0.00 | 0.61 | 0.38 | 61 | 1002.9 |
| 20260504234541 | 10 | 250 | 8.0 | 20.9 | 0.00 | 1.04 | 0.38 | 62 | 1002.7 |
| 20260504233038 | 10 | 284 | 3.2 | 17.7 | 0.00 | 1.04 | 0.38 | 63 | 1002.4 |
| 20260504231554 | 10 | 340 | 8.0 | 19.3 | 0.00 | 1.04 | 0.38 | 62 | 1002.4 |
| 20260504230036 | 10 | 176 | 6.4 | 14.5 | 0.00 | 1.04 | 0.38 | 61 | 1002.2 |
| 20260504224538 | 11 | 242 | 9.7 | 24.1 | 0.00 | 1.35 | 0.38 | 59 | 1002.1 |
| 20260504223033 | 11 | 288 | 8.0 | 29.0 | 0.00 | 1.35 | 0.38 | 59 | 1001.9 |
| 20260504221533 | 11 | 209 | 8.0 | 30.6 | 0.00 | 1.35 | 0.38 | 57 | 1001.6 |
| 20260504220034 | 12 | 298 | 9.7 | 32.2 | 0.00 | 1.35 | 0.38 | 55 | 1001.7 |
| 20260504214530 | 12 | 215 | 12.9 | 29.0 | 0.03 | 1.73 | 0.38 | 54 | 1001.4 |
| 20260504213029 | 12 | 271 | 11.3 | 27.4 | 0.03 | 1.73 | 0.38 | 54 | 1001.3 |
| 20260504211529 | 12 | 93 | 9.7 | 35.4 | 0.03 | 1.73 | 0.38 | 57 | 1001.3 |
| 20260504210027 | 12 | 291 | 14.5 | 48.3 | 0.03 | 1.73 | 0.38 | 53 | 1001.2 |
| 20260504204524 | 12 | 257 | 14.5 | 35.4 | 0.00 | 1.75 | 0.36 | 54 | 1001.1 |
| 20260504203025 | 11 | 214 | 14.5 | 45.1 | 0.00 | 1.75 | 0.36 | 60 | 1000.8 |
| 20260504201518 | 11 | 238 | 11.3 | 33.8 | 0.00 | 1.75 | 0.36 | 64 | 1000.4 |
| 20260504200015 | 11 | 263 | 14.5 | 37.0 | 0.00 | 1.75 | 0.36 | 65 | 1000.0 |
| 20260504194525 | 11 | 302 | 12.9 | 32.2 | 0.00 | 1.80 | 0.36 | 67 | 999.6 |
| 20260504193015 | 12 | 215 | 9.7 | 41.8 | 0.00 | 1.80 | 0.36 | 70 | 999.0 |
| 20260504191506 | 11 | 309 | 8.0 | 25.7 | 0.00 | 1.80 | 0.36 | 73 | 999.2 |
| 20260504190002 | 10 | 253 | 8.0 | 27.4 | 0.00 | 1.88 | 0.36 | 77 | 998.9 |
| 20260504184600 | 9 | 227 | 11.3 | 32.2 | 0.00 | 1.88 | 0.36 | 80 | 998.9 |
| 20260504183056 | 8 | 319 | 14.5 | 38.6 | 0.00 | 1.88 | 0.36 | 81 | 998.6 |
| 20260504181557 | 8 | 304 | 12.9 | 38.6 | 0.00 | 1.88 | 0.36 | 84 | 998.7 |
| 20260504180133 | 7 | 254 | 8.0 | 22.5 | 0.00 | 1.88 | 0.36 | 86 | 998.5 |
| 20260504174523 | 7 | 268 | 9.7 | 25.7 | 0.00 | 1.88 | 0.36 | 87 | 998.5 |
| 20260504120110 | 4 | 240 | 11.3 | 25.7 | 0.00 | 1.83 | 0.30 | 92 | 987.5 |
| 20260504081510 | 3 | 286 | 16.1 | 35.4 | 0.05 | 1.80 | 0.28 | 96 | 977.4 |